Regional Weather Roundup
Issued by NWS

Home | Current Version | Previous Version | Text Only | Print | Product List | Glossary Off
Versions: 1 2 3 4 5 6 7 8 9 10 11 12 13 14 15 16 17 18 19 20 21 22 23 24 25 26 27 28 29 30 31 32 33 34 35 36 37 38 39 40 41 42 43 44 45 46 47 48 49 50

000
ASUS44 KMEG 280410
RWRTN
TENNESSEE HOURLY STATE WEATHER ROUNDUP
NATIONAL WEATHER SERVICE MEMPHIS TN
1100 PM CDT MON JUL 27 2015

TNZ002-004-019-021-049-052-054-088>092-280500-
WEST TENNESSEE

CITY           SKY/WX    TMP DP  RH WIND       PRES   REMARKS
MEMPHIS INTL   PTCLDY    85  76  74 S5        29.97R HX  94
NWS MEMPHIS      N/A     81 N/A N/A MISG        N/A
JACKSON        CLEAR     80  78  94 CALM      29.97S
DYERSBURG        N/A    N/A N/A N/A MISG        N/A
PARIS          CLEAR     75  73  94 CALM      29.98F
LEXINGTON      CLEAR     79  77  94 CALM      29.98S
$$

TNZ008-025-027-028-033-062-065-066-280500-
NORTH MIDDLE TENNESSEE

CITY           SKY/WX    TMP DP  RH WIND       PRES   REMARKS
NASHVILLE      MOCLDY    84  75  74 CALM      30.00R HX  92
CLARKSVILLE    CLOUDY    77  72  84 CALM      29.98F
SMYRNA         MOCLDY    80  76  87 CALM      30.00R
COOKEVILLE     PTCLDY    77  75  94 CALM      30.02S
CROSSVILLE     MOCLDY    75  71  87 CALM      30.09R
$$

TNZ061-075-076-078-094-096-097-280500-
SOUTH MIDDLE TENNESSEE

CITY           SKY/WX    TMP DP  RH WIND       PRES   REMARKS
FAYETTEVILLE   CLEAR     79  70  73 CALM      30.02S
TULLAHOMA      CLEAR     77  73  88 CALM      30.04R
WINCHESTER     CLEAR     75  73  94 CALM      30.03R
MCMINNVILLE    CLEAR     77  77 100 CALM      30.03R
COLUMBIA       CLEAR     81  81 100 CALM      30.00R HX  91
SHELBYVILLE    MOCLDY    79  77  94 CALM      30.02S
$$

TNZ017-018-042-046-047-280500-
NORTHEAST TENNESSEE

CITY           SKY/WX    TMP DP  RH WIND       PRES   REMARKS
TRI CITIES     MOCLDY    72  71  97 CALM      30.06R FOG
ELIZABETHTON   CLEAR     70  68  94 CALM      30.07S
$$

TNZ012-013-036-069-073-074-280500-
CENTRAL EAST TENNESSEE

CITY           SKY/WX    TMP DP  RH WIND       PRES   REMARKS
KNOXVILLE      MOCLDY    79  73  82 NE3       30.02R
OAK RIDGE      CLOUDY    78  72  81 CALM      30.04R
GATLINBURG     CLEAR     77  72  83 CALM      30.02S
MORRISTOWN       N/A     77  73  88 CALM      30.06S
$$

TNZ083-085-099-280500-
SOUTHEAST TENNESSEE

CITY           SKY/WX    TMP DP  RH WIND       PRES   REMARKS
CHATTANOOGA    MOCLDY    80  76  87 W3        30.01R
$$

SKY/WX REPORTED AS FAIR MEANS FEW OR NO CLOUDS BELOW
12 THOUSAND FEET.



USA.gov is the U.S. government's official web portal to all federal, state and local government web resources and services.